Simultaneous Nadir Overpasses (SNOs) Predictions

Prediction of SNOs between METOP-B and TERRA Satellite Orbit:

Table of predicted SNOs for the next 14.0 days since TLE Epoch: 9/15/2018
Index Date (METOP-B) Time (METOP-B) Lat,Lon (METOP-B) SZA (METOP-B ) Date (TERRA) Time (TERRA) Lat,Lon (TERRA) SZA (TERRA ) Distance(km) Time Diff (sec)
1 09/16/2018 22:38:52 81.36,-111.64 82.00 09/16/2018 22:39:55 81.36,-111.64 82.03 0.02 63
2 09/16/2018 23:29:32 -81.37, 56.17 97.93 09/16/2018 23:29:21 -81.38, 56.28 97.92 2.15 11
3 09/19/2018 18:13:11 81.36, -45.20 83.11 09/19/2018 18:14:08 81.36, -45.18 83.14 0.34 57
4 09/19/2018 19:03:52 -81.36, 122.24 96.86 09/19/2018 19:03:35 -81.36, 122.38 96.86 2.44 17
5 09/22/2018 13:47:30 81.36, 21.22 84.23 09/22/2018 13:48:21 81.36, 21.11 84.24 2.12 51
6 09/22/2018 14:38:10 -81.37,-170.92 95.70 09/22/2018 14:37:47 -81.37,-170.92 95.71 0.49 23
7 09/25/2018 09:21:48 81.36, 87.63 85.35 09/25/2018 09:22:32 81.36, 87.61 85.36 0.68 44
8 09/25/2018 10:12:28 -81.37,-104.49 94.58 09/25/2018 10:11:58 -81.38,-104.39 94.58 1.84 30
9 09/28/2018 04:56:06 81.37, 154.43 86.51 09/28/2018 04:56:43 81.37, 154.33 86.52 1.77 37




NCC Satellite Simultaneous Nadir Overpasses (SNOs) Prediction Service
